Vertical_Velocity
-5 0 -3 1 -9 0 5 4 -2 -6 -1 -3 -1 6 5 6 -2 -3 0 -0 -2 -4 1 0 -1 1 -4 -5 -6 -3 -5 -5
3 4 1 -2 -9 -1 4 -0 0 3 6 3 4 1 5 -2 -3 2 -0 -1 -2 -3 -7 -10 -14 -10 -5 -7 -5 -8 -5 -3
2 -0 2 -12 -3 -1 0 -3 4 2 -0 -1 1 0 -5 -5 1 -4 -3 -7 -5 -13 -4 -4 -4 -2 -3 -5 -3 -5 -3 -2
2 -1 2 -6 1 1 -1 -2 2 2 -1 -0 -2 -6 -1 -5 -4 -10 1 -4 -8 -3 -4 -2 -3 -1 -2 -5 -4 -5 -5 -2
-2 -7 -2 -9 6 -0 -0 0 -2 -1 -1 -4 -4 0 -5 -5 -5 -6 -3 -0 -1 -1 -2 -1 0 0 -1 -2 -2 -5 -5 -5
-8 -13 5 4 3 2 0 -0 1 -1 -3 -8 4 -8 -1 -4 -6 1 3 -3 -4 -2 -5 -5 -6 -6 -5 -6 -4 -3 -4 -5
5 -11 -1 -2 -1 -1 -2 -1 -5 -0 -1 -2 -3 -1 -2 -1 -0 6 1 1 -1 -4 -1 -0 -2 -3 -2 -1 -5 -5 -3 -1
1 -4 -9 3 -1 -1 -1 -3 -2 -2 -2 -1 -2 -0 -1 -1 -0 -3 0 -1 -1 -3 -1 0 0 1 -0 -1 0 0 -0 -4
-2 0 0 -6 -1 -0 -1 -1 -2 -2 -3 -2 -1 0 1 -1 -2 4 0 -10 -2 -4 -0 1 -0 -0 -2 -3 -5 -1 -2 -4
-2 1 -1 0 1 2 1 -0 -4 -2 -2 -3 -1 1 3 1 -1 1 -5 -2 1 -4 -3 -2 -1 -2 -2 -2 -0 -2 -1 -0
-4 -1 -2 -2 1 -0 0 1 -4 -4 -1 -0 1 2 1 -2 0 15 -4 2 2 -0 -2 -0 -2 -2 -2 -2 -3 -1 -4 -2
-2 0 -1 2 0 -1 3 1 -3 -4 1 3 3 0 -3 1 4 -6 -2 2 0 -2 -2 -4 -3 -3 -3 -5 -3 -4 -6 -1
0 -1 -1 -1 -1 -2 2 4 -2 -3 -1 7 2 3 2 -1 -0 -3 -6 -4 -1 -1 -5 -4 -3 -4 -6 -6 0 2 -1 -2
4 1 -2 -5 -3 0 -1 4 2 -2 4 6 2 2 2 6 -1 -6 -1 -1 -1 -2 -2 -2 -1 -0 -1 -5 -2 4 1 -2
2 10 2 -2 -5 -2 2 -2 2 2 6 4 3 4 10 4 4 -5 3 3 1 -0 -0 1 -2 -2 -1 -1 -6 -5 -2 -1
-1 8 12 5 3 -0 5 -3 -3 -0 9 4 6 9 1 -2 4 -2 3 1 2 -1 2 0 -1 -1 -5 -2 -4 -3 -0 1
17 -3 7 5 4 3 -3 -2 -4 2 9 6 -2 12 0 8 -3 4 7 4 -5 -2 0 1 2 3 5 1 3 3 -1 -1
-3 10 -0 4 5 12 3 1 -3 4 7 0 6 5 4 3 1 1 -2 -8 -1 2 0 -5 -3 1 -1 -2 -4 -2 -5 1
-5 -3 0 5 6 4 2 3 -4 7 6 10 14 9 3 5 7 3 -3 -1 0 -5 -2 3 -3 -7 -1 -0 -0 -3 1 2
Height
3144 3146 3147 3147 3145 3148 3150 3151 3152 3152 3152 3153 3153 3153 3151 3151 3150 3150 3149 3150 3149 3147 3148 3146 3146 3144 3141 3138 3136 3133 3130 3124
3143 3145 3145 3146 3143 3146 3148 3149 3149 3149 3149 3149 3150 3150 3149 3148 3147 3147 3147 3146 3146 3144 3142 3142 3141 3139 3135 3132 3128 3124 3121 3116
3141 3143 3144 3142 3141 3141 3144 3145 3145 3146 3146 3146 3146 3146 3145 3144 3144 3144 3144 3143 3143 3141 3140 3137 3135 3133 3129 3124 3119 3115 3111 3107
3137 3139 3140 3140 3139 3140 3140 3142 3142 3143 3142 3143 3142 3141 3141 3141 3140 3140 3140 3139 3137 3135 3133 3132 3128 3124 3120 3116 3111 3105 3100 3098
3133 3134 3135 3135 3137 3137 3137 3137 3138 3139 3138 3137 3137 3137 3136 3135 3134 3135 3134 3134 3132 3129 3125 3122 3120 3116 3111 3106 3101 3096 3091 3086
3127 3128 3130 3132 3132 3134 3135 3136 3135 3135 3135 3135 3136 3131 3131 3131 3129 3129 3129 3126 3124 3120 3116 3113 3108 3104 3101 3096 3091 3086 3081 3076
3125 3122 3125 3127 3129 3130 3131 3132 3131 3132 3133 3132 3132 3131 3129 3128 3127 3127 3123 3120 3116 3110 3107 3105 3101 3097 3093 3087 3081 3076 3071 3065
3121 3120 3120 3124 3125 3126 3127 3127 3127 3128 3128 3129 3128 3126 3125 3123 3123 3119 3118 3114 3109 3104 3101 3098 3094 3090 3084 3078 3073 3068 3062 3057
3117 3118 3118 3119 3122 3123 3123 3123 3123 3123 3124 3124 3123 3122 3120 3117 3116 3114 3109 3105 3102 3097 3094 3091 3086 3080 3074 3068 3062 3057 3053 3048
3114 3116 3116 3117 3119 3120 3120 3119 3118 3119 3119 3118 3117 3115 3113 3111 3108 3103 3099 3096 3093 3088 3084 3081 3076 3070 3064 3059 3055 3050 3045 3040
3112 3113 3113 3114 3115 3116 3116 3115 3112 3113 3113 3111 3110 3108 3106 3103 3099 3094 3091 3087 3084 3081 3077 3073 3066 3061 3055 3049 3045 3041 3036 3033
3109 3110 3109 3109 3109 3109 3111 3110 3106 3106 3106 3105 3103 3100 3097 3095 3090 3086 3083 3079 3075 3072 3068 3062 3057 3051 3046 3041 3037 3033 3028 3023
3106 3106 3106 3104 3103 3103 3105 3105 3100 3099 3098 3098 3095 3092 3089 3085 3081 3077 3074 3070 3067 3064 3058 3053 3048 3043 3038 3033 3028 3023 3018 3015
3106 3103 3102 3100 3098 3098 3097 3098 3096 3093 3091 3090 3088 3084 3080 3076 3073 3069 3067 3064 3059 3055 3050 3045 3041 3035 3030 3026 3020 3016 3012 3008
3104 3103 3098 3095 3093 3092 3091 3089 3088 3086 3085 3084 3080 3076 3071 3067 3064 3061 3060 3057 3052 3048 3044 3039 3033 3026 3022 3020 3014 3011 3006 3001
3100 3100 3097 3092 3089 3088 3086 3083 3079 3078 3079 3076 3072 3069 3064 3060 3056 3055 3052 3049 3044 3041 3036 3029 3024 3019 3015 3012 3006 3002 3000 2996
3097 3095 3095 3090 3086 3083 3080 3076 3073 3072 3073 3069 3066 3061 3055 3052 3049 3048 3044 3040 3035 3031 3027 3022 3017 3011 3009 3005 3000 2996 2993 2990
3090 3089 3087 3086 3083 3079 3075 3071 3067 3065 3066 3062 3057 3052 3047 3044 3042 3039 3034 3030 3029 3024 3019 3014 3010 3004 3002 2998 2993 2989 2986 2983
3082 3082 3081 3079 3077 3073 3071 3066 3061 3061 3057 3053 3048 3041 3037 3035 3032 3030 3026 3024 3021 3017 3012 3007 3001 2996 2994 2991 2987 2984 2980 2976